Weather History for Tillamook, OR

Change the Weather History Date:

Thursday, January 17, 2013

  Actual Average (KMMV) Record (KMMV)
Temperature  
Mean Temperature 44 °F 41 °F  
Max Temperature 59 °F 48 °F 61 °F (1975)
Min Temperature 30 °F 34 °F 12 °F (1907)
Degree Days  
Heating Degree Days 20 24  
Month to date heating degree days 420  
Since 1 July heating degree days 2425  
Cooling Degree Days 0 0  
Month to date cooling degree days 0  
Year to date cooling degree days 0  
Moisture  
Dew Point 34 °F    
Average Humidity 89    
Maximum Humidity 100    
Minimum Humidity 48    
Precipitation  
Precipitation 0.00 in 0.21 in 1.75 in (1919)
Month to date precipitation 3.59  
Year to date precipitation 3.59  
Sea Level Pressure  
Sea Level Pressure 30.34 in    
Wind  
Wind Speed 3 mph (SSE)    
Max Wind Speed 9 mph    
Max Gust Speed -    
Visibility 10 miles    
Events      
T = Trace of Precipitation, MM = Missing Value Source: NWS Daily Summary

Daily Weather History Graph

Daily Weather History Graph

Search for Another Location

Airport:

Trip Planner

Search our weather history database for the weather conditions in past years. The results will help you decide how hot, cold, wet, or windy it might be!

Date:

Astronomy

Jan. 17, 2013 Rise Set
Actual Time 8:49 AM MST 6:01 PM MST
Civil Twilight 8:16 AM MST 6:34 PM MST
Nautical Twilight 7:40 AM MST 7:11 PM MST
Astronomical Twilight 7:05 AM MST 7:46 PM MST
Moon 11:38 AM MST (1/17) 12:18 AM MST (1/17)
Length of Visible Light 10h 17m
Length of Day
9h 11m
Waxing Crescent, 38% of the Moon is Illuminated
Jan 17
Waxing Crescent
Jan 18
First Quarter
Jan 26
Full
Feb 3
Last Quarter
Feb 10
New

Hourly Weather History & Observations

Time (MST) Temp. Windchill Dew Point Humidity Pressure Visibility Wind Dir Wind Speed Gust Speed Precip Events Conditions
12:15 AM 32.0 °F 28.7 °F 32.0 °F 100% 30.44 in 7.0 mi South 3.5 mph - N/A   Clear
12:35 AM 30.2 °F 26.7 °F 30.2 °F 100% 30.43 in 10.0 mi SSE 3.5 mph - N/A   Clear
12:55 AM 32.0 °F - 32.0 °F 100% 30.43 in 10.0 mi Calm Calm - N/A   Clear
1:15 AM 32.0 °F 26.4 °F 32.0 °F 100% 30.42 in 10.0 mi SE 5.8 mph - N/A   Clear
1:35 AM 32.0 °F - 32.0 °F 100% 30.42 in 10.0 mi Calm Calm - N/A   Clear
1:55 AM 30.2 °F 25.4 °F 30.2 °F 100% 30.42 in 10.0 mi SE 4.6 mph - N/A   Clear
2:15 AM 32.0 °F - 32.0 °F 100% 30.42 in 10.0 mi Calm Calm - N/A   Clear
2:35 AM 30.2 °F 25.4 °F 30.2 °F 100% 30.42 in 10.0 mi SSE 4.6 mph - N/A   Clear
2:55 AM 32.0 °F 28.7 °F 32.0 °F 100% 30.42 in 10.0 mi SE 3.5 mph - N/A   Clear
3:15 AM 30.2 °F - 30.2 °F 100% 30.42 in 10.0 mi Calm Calm - N/A   Clear
3:35 AM 30.2 °F 26.7 °F 28.4 °F 93% 30.43 in 7.0 mi SSE 3.5 mph - N/A   Clear
3:55 AM 32.0 °F - 32.0 °F 100% 30.42 in 7.0 mi Calm Calm - N/A   Clear
4:15 AM 30.2 °F 26.7 °F 30.2 °F 100% 30.41 in 10.0 mi SSE 3.5 mph - N/A   Clear
4:35 AM 30.2 °F 26.7 °F 30.2 °F 100% 30.41 in 10.0 mi SSE 3.5 mph - N/A   Clear
5:15 AM 32.0 °F - 32.0 °F 100% 30.39 in 10.0 mi Calm Calm - N/A   Clear
5:35 AM 30.2 °F 26.7 °F 30.2 °F 100% 30.38 in 10.0 mi SSE 3.5 mph - N/A   Clear
5:55 AM 30.2 °F 26.7 °F 30.2 °F 100% 30.39 in 10.0 mi SE 3.5 mph - N/A   Clear
6:15 AM 32.0 °F 24.2 °F 32.0 °F 100% 30.37 in 10.0 mi SE 9.2 mph - N/A   Clear
6:35 AM 32.0 °F 28.7 °F 30.2 °F 93% 30.37 in 10.0 mi South 3.5 mph - N/A   Clear
6:55 AM 30.2 °F 25.4 °F 28.4 °F 93% 30.37 in 10.0 mi SE 4.6 mph - N/A   Clear
7:15 AM 30.2 °F 24.3 °F 30.2 °F 100% 30.36 in 10.0 mi SE 5.8 mph - N/A   Clear
7:35 AM 30.2 °F 25.4 °F 28.4 °F 93% 30.36 in 10.0 mi SE 4.6 mph - N/A   Clear
7:55 AM 30.2 °F 26.7 °F 28.4 °F 93% 30.37 in 10.0 mi SE 3.5 mph - N/A   Clear
8:15 AM 30.2 °F 26.7 °F 28.4 °F 93% 30.37 in 10.0 mi SE 3.5 mph - N/A   Clear
8:35 AM 32.0 °F 28.7 °F 30.2 °F 93% 30.36 in 10.0 mi SE 3.5 mph - N/A   Clear
8:55 AM 30.2 °F 26.7 °F 28.4 °F 93% 30.36 in 10.0 mi SE 3.5 mph - N/A   Clear
9:15 AM 30.2 °F 26.7 °F 28.4 °F 93% 30.37 in 10.0 mi South 3.5 mph - N/A   Clear
9:35 AM 30.2 °F - 30.2 °F 100% 30.37 in 10.0 mi Calm Calm - N/A   Clear
9:55 AM 32.0 °F 28.7 °F 30.2 °F 93% 30.37 in 10.0 mi SSE 3.5 mph - N/A   Clear
10:15 AM 33.8 °F 29.6 °F 32.0 °F 93% 30.37 in 10.0 mi SSE 4.6 mph - N/A   Clear
10:35 AM 35.6 °F 30.7 °F 33.8 °F 93% 30.37 in 10.0 mi SE 5.8 mph - N/A   Clear
10:55 AM 37.4 °F 34.9 °F 33.8 °F 87% 30.37 in 10.0 mi SSE 3.5 mph - N/A   Clear
11:15 AM 39.2 °F 37.0 °F 35.6 °F 87% 30.37 in 10.0 mi SSE 3.5 mph - N/A   Clear
11:55 AM 44.6 °F - 35.6 °F 71% 30.36 in 10.0 mi Calm Calm - N/A   Clear
12:15 PM 44.6 °F - 37.4 °F 76% 30.35 in 10.0 mi Calm Calm - N/A   Clear
12:35 PM 48.2 °F - 39.2 °F 71% 30.34 in 10.0 mi Calm Calm - N/A   Clear
12:55 PM 50.0 °F - 39.2 °F 66% 30.33 in 10.0 mi Calm Calm - N/A   Clear
1:15 PM 50.0 °F - 39.2 °F 66% 30.32 in 10.0 mi Calm Calm - N/A   Clear
1:35 PM 51.8 °F - 37.4 °F 58% 30.31 in 10.0 mi Calm Calm - N/A   Clear
1:55 PM 53.6 °F - 39.2 °F 58% 30.31 in 10.0 mi Calm Calm - N/A   Clear
2:15 PM 55.4 °F - 39.2 °F 54% 30.30 in 10.0 mi WNW 3.5 mph - N/A   Clear
2:35 PM 55.4 °F - 39.2 °F 54% 30.29 in 10.0 mi Calm Calm - N/A   Clear
2:55 PM 57.2 °F - 37.4 °F 48% 30.28 in 10.0 mi Calm Calm - N/A   Clear
3:55 PM 59.0 °F - 39.2 °F 48% 30.26 in 10.0 mi Calm Calm - N/A   Clear
4:35 PM 59.0 °F - 42.8 °F 55% 30.26 in 10.0 mi WNW 3.5 mph - N/A   Clear
6:55 PM 42.8 °F 41.1 °F 41.0 °F 93% 30.26 in 10.0 mi South 3.5 mph - N/A   Clear
7:15 PM 42.8 °F 41.1 °F 39.2 °F 87% 30.26 in 10.0 mi South 3.5 mph - N/A   Clear
7:35 PM 41.0 °F 38.0 °F 39.2 °F 93% 30.26 in 10.0 mi SSE 4.6 mph - N/A   Clear
7:55 PM 41.0 °F 39.0 °F 39.2 °F 93% 30.25 in 10.0 mi SE 3.5 mph - N/A   Clear
8:15 PM 39.2 °F 37.0 °F 39.2 °F 100% 30.26 in 10.0 mi South 3.5 mph - N/A   Clear
8:35 PM 37.4 °F 33.8 °F 37.4 °F 100% 30.26 in 10.0 mi SSE 4.6 mph - N/A   Clear
8:55 PM 37.4 °F 32.8 °F 37.4 °F 100% 30.26 in 10.0 mi SE 5.8 mph - N/A   Clear
10:15 PM 33.8 °F 29.6 °F 33.8 °F 100% 30.26 in 7.0 mi South 4.6 mph - N/A   Clear
10:35 PM 35.6 °F 32.8 °F 33.8 °F 93% 30.26 in 10.0 mi SSE 3.5 mph - N/A   Clear
10:55 PM 35.6 °F 31.7 °F 35.6 °F 100% 30.26 in 10.0 mi SE 4.6 mph - N/A   Clear
11:15 PM 35.6 °F 32.8 °F 33.8 °F 93% 30.26 in 10.0 mi ESE 3.5 mph - N/A   Clear
11:35 PM 35.6 °F - 33.8 °F 93% 30.25 in 10.0 mi Calm Calm - N/A   Clear
11:55 PM 33.8 °F 30.8 °F 32.0 °F 93% 30.25 in 10.0 mi South 3.5 mph - N/A   Clear